Regional Weather Roundup
Issued by NWS Cleveland, OH

Home | Current Version | Previous Version | Graphics & Text | Print | Product List | Glossary On
Versions: 1 2 3 4 5 6 7 8 9 10 11 12 13 14 15 16 17 18 19 20 21 22 23 24 25 26 27 28 29 30 31 32 33 34 35 36 37 38 39 40 41 42 43 44 45 46 47 48 49 50
717
ASUS41 KCLE 231110
RWRCLE
OHIO REGIONAL WEATHER ROUNDUP
NATIONAL WEATHER SERVICE CLEVELAND, OH
700 AM EDT TUE MAY 23 2017

NOTE: "FAIR" INDICATES FEW OR NO CLOUDS BELOW 12,000 FEET WITH NO
SIGNIFICANT WEATHER AND/OR OBSTRUCTIONS TO VISIBILITY.

OHZ001>008-015>018-024>027-034-035-043-044-231200-
   NORTHWEST OHIO

CITY           SKY/WX    TMP DP  RH WIND       PRES   REMARKS
DEFIANCE       CLOUDY    56  49  77 CALM      29.89F
FINDLAY        PTCLDY    54  47  77 SE5       29.90F
TOLEDO EXPRESS CLOUDY    55  49  80 S3        29.89F
TOLEDO EXEC    CLOUDY    56  50  80 S5        29.91S
LIMA           CLOUDY    54  49  83 SE6       29.90F
$$

OHZ009>014-019>023-028>033-038-089-231200-
   NORTHEAST OHIO

CITY           SKY/WX    TMP DP  RH WIND       PRES   REMARKS
CLE-HOPKINS    MOCLDY    54  47  77 S5        29.95S
CLE-LAKEFRONT  CLOUDY    56  46  69 S7        29.92S
CUY CO. ARPT   MOCLDY    57  48  72 S6        29.94
LORAIN-ELYRIA  CLOUDY    50  44  80 S3        29.93S
ASHTABULA      CLOUDY    51  48  89 CALM      29.95S
AKRON-CANTON   CLOUDY    52  45  77 CALM      29.94S
WOOSTER        CLOUDY    49  47  93 CALM      29.95R
MANSFIELD      CLOUDY    50  47  89 SE3       29.94S
YOUNGSTOWN     CLOUDY    47  45  93 E5        29.95S
$$

OHZ042-051>053-060>062-070>072-077>081-231200-
  SOUTHWEST OHIO

CITY           SKY/WX    TMP DP  RH WIND       PRES   REMARKS
CINC-COVINGTON MOCLDY    52  48  86 S5        29.90R
CINC-LUNKEN    CLEAR     47  47 100 CALM      29.91R
HAMILTON       CLOUDY    50  49  96 NW3       29.91R
DAYTON         MOCLDY    50  48  93 E3        29.91S
WRIGHT-PAT AFB MOCLDY    51  50  97 CALM      29.90S
DAYTON GENERAL MOCLDY    50  47  89 NE6       29.89S
WILMINGTON     CLOUDY    49  47  93 NE3       29.90S
$$

OHZ036-037-039>041-045>050-054>059-063>069-073>076-082>088-231200-
  CENTRAL AND SOUTHEAST OHIO

CITY           SKY/WX    TMP DP  RH WIND       PRES   REMARKS
COLUMBUS       CLOUDY    52  48  86 CALM      29.90F
OSU AIRPORT    PTCLDY    50  48  93 E3        29.90F
BOLTON FIELD   NOT AVBL
RICKENBACK AFB CLOUDY    50  49  96 E5        29.90S
NEWARK         CLOUDY    50  48  93 CALM      29.91F
MARION         PTCLDY    50  46  86 E3        29.92F
LANCASTER      CLOUDY    51  48  89 CALM      29.91F
ZANESVILLE     CLOUDY    50  47  89 N5        29.92S
NEW PHILLY     NOT AVBL
$$




USA.gov is the U.S. government's official web portal to all federal, state and local government web resources and services.